Location: Cedar Falls
(42.5280°N, 92.4450°W)
Time: 23:00:41
(UTC-05:00)

NOSS 3-1 (C) - Visible Passes

Search period start: 17 October 2017 00:00
Search period end: 27 October 2017 00:00
Orbit: 817 x 1392 km, 63.4° (Epoch: 12 October)

Date Brightness Start Highest point End Pass type
(mag) Time Alt. Az. Time Alt. Az. Time Alt. Az.
17 Oct 5.5 04:49:57 10° SSE 04:54:12 22° ESE 04:58:46 10° ENE visible
17 Oct 3.4 06:38:38 10° SW 06:44:20 63° NW 06:50:48 10° NNE visible
18 Oct 5.9 04:07:28 10° SE 04:09:28 12° ESE 04:11:32 10° E visible
18 Oct 3.4 05:53:20 10° SSW 05:59:01 83° ESE 06:05:28 10° NE visible
19 Oct 4.1 05:10:26 22° S 05:13:53 50° ESE 05:19:58 10° NE visible
20 Oct 4.8 04:27:28 26° SE 04:28:56 30° ESE 04:34:12 10° NE visible
20 Oct 3.7 06:14:56 16° WSW 06:19:22 50° NW 06:25:44 10° NNE visible
21 Oct 5.6 03:44:21 17° ESE 03:44:21 17° ESE 03:47:51 10° ENE visible
21 Oct 3.3 05:31:48 41° SW 05:33:58 77° NW 05:40:28 10° NE visible
22 Oct 3.5 04:48:34 67° SE 04:48:44 67° ESE 04:55:04 10° NE visible
22 Oct 4.5 06:36:00 14° W 06:40:11 28° NW 06:45:52 10° NNE visible
23 Oct 4.8 04:05:14 34° E 04:05:14 34° E 04:09:28 10° NE visible
23 Oct 3.9 05:52:40 32° W 05:54:29 40° NW 06:00:40 10° NNE visible
24 Oct 5.8 03:21:49 16° ENE 03:21:49 16° ENE 03:23:30 10° ENE visible
24 Oct 3.5 05:09:14 60° NW 05:09:14 60° NW 05:15:26 10° NNE visible
24 Oct 5.1 06:57:10 10° WNW 07:01:24 18° NNW 07:05:59 10° NNE visible
25 Oct 4.3 04:25:45 44° NE 04:25:45 44° NE 04:30:06 10° NE visible
25 Oct 4.7 06:13:10 20° WNW 06:15:27 24° NNW 06:20:46 10° NNE visible
26 Oct 5.4 03:42:12 23° NE 03:42:12 23° NE 03:44:38 10° NE visible
26 Oct 4.3 05:29:37 33° NW 05:29:40 33° NW 05:35:35 10° NNE visible
